Regional Weather Roundup
Issued by NWS Sioux Falls, SD

Home | Current Version | Previous Version | Text Only | Print | Product List | Glossary On
Versions: 1 2 3 4 5 6 7 8 9 10 11 12 13 14 15 16 17 18 19 20 21 22 23 24 25 26 27 28 29 30 31 32 33 34 35 36 37 38 39 40 41 42 43 44 45 46 47 48 49 50
000
ASUS43 KFSD 210810
RWRFSD

WEATHER ROUNDUP FOR SE SOUTH DAKOTA/SW MINNESOTA/NW IOWA
NATIONAL WEATHER SERVICE SIOUX FALLS SD
300 AM CDT THU AUG 21 2014

NOTE: "FAIR" INDICATES FEW OR NO CLOUDS BELOW 12,000 FEET WITH NO
SIGNIFICANT WEATHER AND OR OBSTRUCTIONS TO VISIBILITY.


SDZ038>040-050-052>070-210900-
SOUTHEAST SOUTH DAKOTA

CITY           SKY/WX    TMP DP  RH WIND       PRES   REMARKS
CHAMBERLAIN    CLEAR     72  71  98 W6        29.67R
HURON          CLOUDY    71  65  81 NE16G28   29.70R
MADISON        FAIR      73  73 100 S7        29.70S
MITCHELL       CLEAR     76  73  91 S8        29.65S
SIOUX FALLS    PTCLDY    77  72  84 S13       29.68F
WINNER         FAIR      72  64  76 W10       29.73R
YANKTON        PTCLDY    75  72  88 S8        29.67S
$$

MNZ071-072-080-081-089-090-097-098-210900-
SOUTHWEST MINNESOTA

CITY           SKY/WX    TMP DP  RH WIND       PRES   REMARKS
FAIRMONT       CLOUDY    72  64  78 MISG      29.78F
JACKSON        CLOUDY    72  68  88 SE16      29.74F
LUVERNE        CLOUDY    73  70  88 S14G29    29.71F
MARSHALL       CLOUDY    70  63  78 SE21      29.69F
MONTEVIDEO     TSTM      70  70 100 SE17      29.71F
PIPESTONE      PTCLDY    72  70  94 SE8       29.72F
REDWOOD FALLS  RAIN      71  69  93 S10       29.74F
TRACY          CLOUDY    69  66  91 SE20G26   29.72F
WINDOM         TSTM      66  64  94 E23G29    29.78R
WORTHINGTON    MOCLDY    73  14  10 S9G18     29.73F
$$

IAZ001>003-012>014-020>022-031-032-NEZ013-014-SDZ071-210900-
NORTHWEST IOWA

CITY           SKY/WX    TMP DP  RH WIND       PRES   REMARKS
CHEROKEE       PTCLDY    74  73  98 S10       29.73F
DENISON        MOCLDY    77  73  88 S15G22    29.76F
ESTHERVILLE    CLOUDY    71  70  96 S16       29.75F
LE MARS        MOCLDY    77  73  88 S15G22    29.70F
ORANGE CITY    PTCLDY    79  72  78 S12       29.72F
SHELDON        MOCLDY    73  73 100 S14G20    29.70F
SIOUX CITY     PTCLDY    78  73  84 S13G18    29.71F
SPENCER        MOCLDY    75  72  90 S14       29.74F
STORM LAKE     PTCLDY    73  73 100 S10       29.78F
$$

ABBREVIATIONS USED IN REMARKS
   TC - TEMPERATURE IN CELSIUS
  WCI - WIND CHILL INDEX
   HX - HEAT INDEX
  VSB - VISIBILITY



USA.gov is the U.S. government's official web portal to all federal, state and local government web resources and services.